This is the latest recevied weather packets stored in our database for station/object WA0GMH-1. If no packets are shown the sender has not sent any weather packets the latest 10 day(s).
| Time | Temp. | Humidity | Pressure | Rain* | Wind** | Luminosity | Snow |
|---|---|---|---|---|---|---|---|
| 1778072768 | 2.78° C | 15% | 1018 hPa | 0 mm | - | - | - |
| 1778072366 | 2.78° C | 15% | 1018 hPa | 0 mm | - | - | - |
| 1778071963 | 2.78° C | 16% | 1017.9 hPa | 0 mm | - | - | - |
| 1778071561 | 2.22° C | 15% | 1017.8 hPa | 0 mm | - | - | - |
| 1778071159 | 2.22° C | 16% | 1017.7 hPa | 0 mm | - | - | - |
| 1778070757 | 1.67° C | 17% | 1017.6 hPa | 0 mm | - | - | - |
| 1778070354 | 1.67° C | 17% | 1017.6 hPa | 0 mm | - | - | - |
| 1778069952 | 1.11° C | 16% | 1017.4 hPa | 0 mm | - | - | - |
| 1778069550 | 1.11° C | 16% | 1017.6 hPa | 0 mm | - | - | - |
| 1778069148 | 0.56° C | 17% | 1017.5 hPa | 0 mm | - | - | - |
| 1778068745 | 0.56° C | 16% | 1017.5 hPa | 0 mm | - | - | - |
| 1778068343 | 0.56° C | 15% | 1017.3 hPa | 0 mm | - | - | - |
| 1778067941 | 0° C | 15% | 1017.2 hPa | 0 mm | - | - | - |
| 1778067539 | 0.56° C | 14% | 1016.9 hPa | 0 mm | - | - | - |
| 1778067136 | 0.56° C | 14% | 1017 hPa | 0 mm | - | - | - |
| 1778066734 | 0.56° C | 14% | 1017.1 hPa | 0 mm | - | - | - |
| 1778066332 | 0.56° C | 13% | 1016.8 hPa | 0 mm | - | - | - |
| 1778065930 | 0.56° C | 13% | 1016.8 hPa | 0 mm | - | - | - |
| 1778065527 | 0.56° C | 13% | 1016.9 hPa | 0 mm | - | - | - |
| 1778065125 | 0.56° C | 13% | 1016.6 hPa | 0 mm | - | - | - |
| 1778064723 | 1.11° C | 12% | 1016.6 hPa | 0 mm | - | - | - |
| 1778064321 | 1.11° C | 12% | 1016.7 hPa | 0 mm | - | - | - |
| 1778063918 | 1.11° C | 12% | 1016.5 hPa | 0 mm | - | - | - |
| 1778063516 | 1.11° C | 12% | 1016.5 hPa | 0 mm | - | - | - |
| 1778063114 | 1.11° C | 12% | 1016.3 hPa | 0 mm | - | - | - |
* Rain since midnight (hover to see other rain measurements)
** Current wind speed in m/s (hover to see current wind gust speed)